{"data":{"norad_id":50485,"epoch":"2026-05-25T01:34:08.495040Z","epoch_age_seconds":70156,"freshness":"FRESH","line1":"1 50485U 21132S   26145.06537610  .00000037  00000+0  60311-4 0  9991","line2":"2 50485  87.9173 340.0404 0001523 100.1066 260.0238 13.18685013218940","mean_motion":13.18685013,"eccentricity":0.0001523,"inclination_deg":87.9173,"raan_deg":340.0404,"arg_perigee_deg":100.1066,"mean_anomaly_deg":260.0238,"bstar":6.0311e-5,"rev_number":21894,"period_min":109.19969407433,"perigee_km":1188.5943143835,"apogee_km":1190.8994918204,"semimajor_km":7567.883903102,"source":"CELESTRAK","updated_at":"2026-05-25T13:38:22.531428Z"}}